Time,TemperatureF,DewpointF,PressureIn,WindDirection,WindDirectionDegrees,WindSpeedMPH,WindSpeedGustMPH,Humidity,HourlyPrecipIn,Conditions,Clouds,dailyrainin,SoftwareType,DateUTC
2013-05-30 00:02:00,63.0,62.0,29.80,NW,310,0.0,1.0,95,0.04,,,0.04,,2013-05-30 05:02:00,
2013-05-30 00:12:00,63.0,62.0,29.80,NW,310,0.0,1.0,95,0.04,,,0.04,,2013-05-30 05:12:00,
2013-05-30 00:22:00,63.0,62.0,29.78,NW,310,0.0,0.0,95,0.04,,,0.04,,2013-05-30 05:22:00,
2013-05-30 00:32:00,62.0,61.0,29.78,NW,310,0.0,0.0,96,0.05,,,0.05,,2013-05-30 05:32:00,
2013-05-30 00:42:00,62.0,61.0,29.78,NW,310,0.0,0.0,96,0.05,,,0.05,,2013-05-30 05:42:00,
2013-05-30 00:52:00,62.0,61.0,29.78,NW,311,0.0,0.0,96,0.02,,,0.05,,2013-05-30 05:52:00,
2013-05-30 01:01:00,61.0,60.0,29.78,NW,311,0.0,0.0,96,0.01,,,0.05,,2013-05-30 06:01:00,
2013-05-30 01:12:00,61.0,60.0,29.78,NW,311,0.0,0.0,96,0.01,,,0.05,,2013-05-30 06:12:00,
2013-05-30 01:22:00,61.0,60.0,29.78,ESE,120,0.0,1.0,97,0.01,,,0.05,,2013-05-30 06:22:00,
2013-05-30 01:32:00,61.0,60.0,29.77,SE,145,0.0,0.0,97,0.00,,,0.05,,2013-05-30 06:32:00,
2013-05-30 01:42:00,61.0,60.0,29.77,SE,145,0.0,0.0,97,0.00,,,0.05,,2013-05-30 06:42:00,
2013-05-30 01:52:00,61.0,60.0,29.77,ESE,107,0.0,0.0,97,0.00,,,0.05,,2013-05-30 06:52:00,
2013-05-30 02:01:00,60.0,59.0,29.78,ESE,107,0.0,0.0,97,0.00,,,0.05,,2013-05-30 07:01:00,
2013-05-30 02:12:00,60.0,59.0,29.78,ESE,107,0.0,0.0,97,0.00,,,0.05,,2013-05-30 07:12:00,
2013-05-30 02:22:00,60.0,59.0,29.78,SE,128,0.0,1.0,98,0.00,,,0.05,,2013-05-30 07:22:00,
2013-05-30 02:32:00,61.0,60.0,29.78,ENE,63,0.0,2.0,98,0.00,,,0.05,,2013-05-30 07:32:00,
2013-05-30 02:42:00,61.0,60.0,29.78,ENE,63,0.0,2.0,98,0.00,,,0.05,,2013-05-30 07:42:00,
2013-05-30 02:52:00,61.0,60.0,29.78,NW,325,0.0,1.0,98,0.00,,,0.05,,2013-05-30 07:52:00,
2013-05-30 03:02:00,61.0,60.0,29.78,NNW,327,0.0,1.0,97,0.00,,,0.05,,2013-05-30 08:02:00,
2013-05-30 03:11:00,61.0,60.0,29.78,NNW,327,0.0,1.0,97,0.00,,,0.05,,2013-05-30 08:11:00,
2013-05-30 03:21:00,61.0,60.0,29.78,NE,43,0.0,2.0,97,0.00,,,0.05,,2013-05-30 08:21:00,
2013-05-30 03:32:00,61.0,60.0,29.78,North,356,0.0,0.0,97,0.00,,,0.05,,2013-05-30 08:32:00,
2013-05-30 03:42:00,61.0,60.0,29.78,North,356,0.0,0.0,97,0.00,,,0.05,,2013-05-30 08:42:00,
2013-05-30 03:52:00,60.0,59.0,29.78,North,356,0.0,0.0,97,0.00,,,0.05,,2013-05-30 08:52:00,
2013-05-30 04:01:00,60.0,59.0,29.78,North,356,0.0,0.0,97,0.00,,,0.05,,2013-05-30 09:01:00,
2013-05-30 04:11:00,60.0,59.0,29.78,North,356,0.0,0.0,97,0.00,,,0.05,,2013-05-30 09:11:00,
2013-05-30 04:21:00,59.0,58.0,29.77,North,356,0.0,0.0,97,0.00,,,0.05,,2013-05-30 09:21:00,
2013-05-30 04:33:00,59.0,58.0,29.78,North,356,0.0,0.0,98,0.00,,,0.05,,2013-05-30 09:33:00,
2013-05-30 04:42:00,59.0,58.0,29.78,North,356,0.0,0.0,98,0.00,,,0.05,,2013-05-30 09:42:00,
2013-05-30 04:53:00,59.0,58.0,29.78,North,356,0.0,0.0,98,0.00,,,0.05,,2013-05-30 09:53:00,
2013-05-30 05:03:00,59.0,58.0,29.78,North,354,0.0,0.0,98,0.00,,,0.05,,2013-05-30 10:03:00,
2013-05-30 05:12:00,59.0,58.0,29.78,North,354,0.0,0.0,98,0.00,,,0.05,,2013-05-30 10:12:00,
2013-05-30 05:23:00,58.0,57.0,29.77,North,354,0.0,0.0,98,0.00,,,0.05,,2013-05-30 10:23:00,
2013-05-30 05:32:00,58.0,57.0,29.78,North,354,0.0,0.0,98,0.00,,,0.05,,2013-05-30 10:32:00,
2013-05-30 05:42:00,58.0,57.0,29.78,North,354,0.0,0.0,98,0.00,,,0.05,,2013-05-30 10:42:00,
2013-05-30 05:52:00,58.0,57.0,29.77,North,354,0.0,0.0,98,0.00,,,0.05,,2013-05-30 10:52:00,
2013-05-30 06:03:00,57.0,56.0,29.77,North,354,0.0,0.0,98,0.00,,,0.05,,2013-05-30 11:03:00,
2013-05-30 06:12:00,57.0,56.0,29.77,North,354,0.0,0.0,98,0.00,,,0.05,,2013-05-30 11:12:00,
2013-05-30 06:22:00,58.0,57.0,29.77,North,359,0.0,0.0,98,0.00,,,0.05,,2013-05-30 11:22:00,
2013-05-30 06:32:00,59.0,59.0,29.78,North,359,0.0,0.0,99,0.00,,,0.05,,2013-05-30 11:32:00,
2013-05-30 06:42:00,59.0,59.0,29.78,North,359,0.0,0.0,99,0.00,,,0.05,,2013-05-30 11:42:00,
2013-05-30 06:52:00,59.0,58.0,29.78,NNE,19,0.0,1.0,98,0.00,,,0.05,,2013-05-30 11:52:00,
2013-05-30 07:01:00,59.0,59.0,29.78,NNE,18,0.0,0.0,99,0.00,,,0.05,,2013-05-30 12:01:00,
2013-05-30 07:11:00,59.0,59.0,29.78,NNE,18,0.0,0.0,99,0.00,,,0.05,,2013-05-30 12:11:00,
2013-05-30 07:22:00,60.0,60.0,29.78,NNE,18,0.0,0.0,99,0.00,,,0.05,,2013-05-30 12:22:00,
2013-05-30 07:32:00,61.0,61.0,29.78,NNE,19,0.0,0.0,99,0.00,,,0.05,,2013-05-30 12:32:00,
2013-05-30 07:42:00,61.0,61.0,29.78,NNE,19,0.0,0.0,99,0.00,,,0.05,,2013-05-30 12:42:00,
2013-05-30 07:52:00,62.0,62.0,29.78,NNW,347,0.0,2.0,99,0.00,,,0.05,,2013-05-30 12:52:00,
2013-05-30 08:01:00,63.0,63.0,29.78,NNE,12,0.0,3.0,99,0.00,,,0.05,,2013-05-30 13:01:00,
2013-05-30 08:11:00,63.0,63.0,29.78,NNE,12,0.0,3.0,99,0.00,,,0.05,,2013-05-30 13:11:00,
2013-05-30 08:22:00,65.0,64.0,29.78,South,174,0.0,2.0,97,0.00,,,0.05,,2013-05-30 13:22:00,
2013-05-30 08:32:00,66.0,64.0,29.78,South,174,0.0,2.0,93,0.00,,,0.05,,2013-05-30 13:32:00,
2013-05-30 08:42:00,66.0,64.0,29.78,South,174,0.0,2.0,93,0.00,,,0.05,,2013-05-30 13:42:00,
2013-05-30 08:52:00,68.0,64.0,29.77,SSE,168,1.0,4.0,88,0.00,,,0.05,,2013-05-30 13:52:00,
2013-05-30 09:01:00,70.0,66.0,29.77,SSE,167,1.0,3.0,87,0.00,,,0.05,,2013-05-30 14:01:00,
2013-05-30 09:11:00,70.0,66.0,29.77,SSE,167,1.0,3.0,87,0.00,,,0.05,,2013-05-30 14:11:00,
2013-05-30 09:22:00,71.0,66.0,29.77,ESE,123,1.0,5.0,84,0.00,,,0.05,,2013-05-30 14:22:00,
2013-05-30 09:32:00,72.0,66.0,29.77,ESE,105,1.0,5.0,82,0.00,,,0.05,,2013-05-30 14:32:00,
2013-05-30 09:42:00,72.0,66.0,29.77,ESE,105,1.0,5.0,82,0.00,,,0.05,,2013-05-30 14:42:00,
2013-05-30 09:52:00,73.0,66.0,29.77,NW,317,1.0,6.0,80,0.00,,,0.05,,2013-05-30 14:52:00,
2013-05-30 10:01:00,74.0,67.0,29.76,NNW,330,0.0,6.0,79,0.00,,,0.05,,2013-05-30 15:01:00,
2013-05-30 10:11:00,74.0,67.0,29.76,NNW,330,0.0,6.0,79,0.00,,,0.05,,2013-05-30 15:11:00,
2013-05-30 10:22:00,76.0,68.0,29.75,NE,49,1.0,3.0,77,0.00,,,0.05,,2013-05-30 15:22:00,
2013-05-30 10:33:00,76.0,67.0,29.75,SSW,193,1.0,10.0,74,0.00,,,0.05,,2013-05-30 15:33:00,
2013-05-30 10:42:00,76.0,67.0,29.75,SSW,193,1.0,10.0,74,0.00,,,0.05,,2013-05-30 15:42:00,
2013-05-30 10:52:00,78.0,67.0,29.75,SSE,153,1.0,7.0,70,0.00,,,0.05,,2013-05-30 15:52:00,
2013-05-30 11:03:00,78.0,66.0,29.75,NNE,29,3.0,10.0,67,0.00,,,0.05,,2013-05-30 16:03:00,
2013-05-30 11:12:00,78.0,66.0,29.75,NNE,29,3.0,10.0,67,0.00,,,0.05,,2013-05-30 16:12:00,
2013-05-30 11:22:00,79.0,67.0,29.74,WNW,295,3.0,7.0,67,0.00,,,0.05,,2013-05-30 16:22:00,
2013-05-30 11:33:00,79.0,67.0,29.74,ESE,120,1.0,6.0,67,0.00,,,0.05,,2013-05-30 16:33:00,
2013-05-30 11:42:00,79.0,67.0,29.74,ESE,120,1.0,6.0,67,0.00,,,0.05,,2013-05-30 16:42:00,
2013-05-30 11:52:00,78.0,68.0,29.74,WSW,240,1.0,5.0,71,0.00,,,0.05,,2013-05-30 16:52:00,
2013-05-30 12:02:00,79.0,67.0,29.74,ESE,107,2.0,10.0,67,0.00,,,0.05,,2013-05-30 17:02:00,
2013-05-30 12:11:00,79.0,67.0,29.74,ESE,107,2.0,10.0,67,0.00,,,0.05,,2013-05-30 17:11:00,
2013-05-30 12:22:00,81.0,68.0,29.73,SSW,197,1.0,10.0,65,0.00,,,0.05,,2013-05-30 17:22:00,
2013-05-30 12:32:00,81.0,67.0,29.74,East,92,2.0,6.0,62,0.00,,,0.05,,2013-05-30 17:32:00,
2013-05-30 12:42:00,81.0,67.0,29.74,East,92,2.0,6.0,62,0.00,,,0.05,,2013-05-30 17:42:00,
2013-05-30 12:52:00,81.0,67.0,29.73,WNW,295,1.0,9.0,62,0.00,,,0.05,,2013-05-30 17:52:00,
2013-05-30 13:02:00,82.0,66.0,29.72,SW,224,2.0,7.0,59,0.00,,,0.05,,2013-05-30 18:02:00,
2013-05-30 13:11:00,82.0,66.0,29.72,SW,224,2.0,7.0,59,0.00,,,0.05,,2013-05-30 18:11:00,
2013-05-30 13:22:00,82.0,67.0,29.72,SSE,166,1.0,5.0,61,0.00,,,0.05,,2013-05-30 18:22:00,
2013-05-30 13:32:00,83.0,65.0,29.71,NNE,30,2.0,8.0,54,0.00,,,0.05,,2013-05-30 18:32:00,
2013-05-30 13:42:00,83.0,65.0,29.71,NNE,30,2.0,8.0,54,0.00,,,0.05,,2013-05-30 18:42:00,
2013-05-30 13:51:00,83.0,65.0,29.70,ENE,76,1.0,8.0,54,0.00,,,0.05,,2013-05-30 18:51:00,
2013-05-30 14:01:00,84.0,64.0,29.69,ENE,67,3.0,6.0,51,0.00,,,0.05,,2013-05-30 19:01:00,
2013-05-30 14:11:00,84.0,64.0,29.69,ENE,67,3.0,6.0,51,0.00,,,0.05,,2013-05-30 19:11:00,
2013-05-30 14:23:00,84.0,67.0,29.68,NE,46,1.0,7.0,56,0.00,,,0.05,,2013-05-30 19:23:00,
2013-05-30 14:32:00,84.0,66.0,29.67,SSE,160,2.0,6.0,55,0.00,,,0.05,,2013-05-30 19:32:00,
2013-05-30 14:42:00,84.0,66.0,29.67,SSE,160,2.0,6.0,55,0.00,,,0.05,,2013-05-30 19:42:00,
2013-05-30 14:52:00,84.0,66.0,29.67,NNE,25,3.0,8.0,54,0.00,,,0.05,,2013-05-30 19:52:00,
2013-05-30 15:01:00,84.0,65.0,29.65,North,358,2.0,8.0,53,0.00,,,0.05,,2013-05-30 20:01:00,
2013-05-30 15:11:00,84.0,65.0,29.65,North,358,2.0,8.0,53,0.00,,,0.05,,2013-05-30 20:11:00,
2013-05-30 15:22:00,85.0,66.0,29.66,North,9,1.0,4.0,53,0.00,,,0.05,,2013-05-30 20:22:00,
2013-05-30 15:33:00,84.0,66.0,29.65,SE,131,0.0,7.0,54,0.00,,,0.05,,2013-05-30 20:33:00,
2013-05-30 15:42:00,84.0,66.0,29.65,SE,131,0.0,7.0,54,0.00,,,0.05,,2013-05-30 20:42:00,
2013-05-30 15:52:00,84.0,65.0,29.65,NNE,25,0.0,6.0,53,0.00,,,0.05,,2013-05-30 20:52:00,
2013-05-30 16:01:00,83.0,64.0,29.64,East,82,4.0,8.0,52,0.00,,,0.05,,2013-05-30 21:01:00,
2013-05-30 16:11:00,83.0,64.0,29.64,East,82,4.0,8.0,52,0.00,,,0.05,,2013-05-30 21:11:00,
2013-05-30 16:22:00,84.0,65.0,29.65,SE,141,2.0,10.0,53,0.00,,,0.05,,2013-05-30 21:22:00,
2013-05-30 16:33:00,83.0,65.0,29.64,WNW,288,2.0,9.0,54,0.00,,,0.05,,2013-05-30 21:33:00,
2013-05-30 16:42:00,83.0,65.0,29.64,WNW,288,2.0,9.0,54,0.00,,,0.05,,2013-05-30 21:42:00,
2013-05-30 16:53:00,81.0,63.0,29.64,NW,311,1.0,5.0,54,0.00,,,0.05,,2013-05-30 21:53:00,
2013-05-30 17:02:00,81.0,63.0,29.64,NW,311,1.0,5.0,54,0.00,,,0.05,,2013-05-30 22:02:00,
2013-05-30 17:12:00,81.0,63.0,29.64,NW,311,1.0,5.0,54,0.00,,,0.05,,2013-05-30 22:12:00,
2013-05-30 17:23:00,66.0,62.0,29.69,ENE,58,0.0,5.0,88,0.31,,,0.36,,2013-05-30 22:23:00,
2013-05-30 17:33:00,65.0,63.0,29.68,NNE,22,0.0,1.0,93,0.32,,,0.37,,2013-05-30 22:33:00,
2013-05-30 17:42:00,65.0,63.0,29.68,NNE,22,0.0,1.0,93,0.32,,,0.37,,2013-05-30 22:42:00,
2013-05-30 17:52:00,64.0,63.0,29.69,NNE,22,0.0,0.0,95,0.33,,,0.38,,2013-05-30 22:52:00,
2013-05-30 18:02:00,64.0,63.0,29.68,NNE,22,0.0,0.0,96,0.13,,,0.38,,2013-05-30 23:02:00,
2013-05-30 18:11:00,64.0,63.0,29.68,NNE,22,0.0,0.0,96,0.13,,,0.38,,2013-05-30 23:11:00,
2013-05-30 18:22:00,64.0,63.0,29.67,NNE,22,0.0,0.0,96,0.02,,,0.38,,2013-05-30 23:22:00,
2013-05-30 18:32:00,64.0,63.0,29.68,East,100,0.0,0.0,97,0.01,,,0.38,,2013-05-30 23:32:00,
2013-05-30 18:41:00,64.0,63.0,29.68,East,100,0.0,0.0,97,0.01,,,0.38,,2013-05-30 23:41:00,
2013-05-30 18:52:00,65.0,64.0,29.68,East,93,0.0,1.0,97,0.00,,,0.38,,2013-05-30 23:52:00,
2013-05-30 19:01:00,65.0,64.0,29.68,ESE,119,0.0,1.0,97,0.00,,,0.38,,2013-05-31 00:01:00,
2013-05-30 19:11:00,65.0,64.0,29.68,ESE,119,0.0,1.0,97,0.00,,,0.38,,2013-05-31 00:11:00,
2013-05-30 19:22:00,65.0,64.0,29.67,ESE,117,0.0,0.0,97,0.00,,,0.38,,2013-05-31 00:22:00,
2013-05-30 19:32:00,65.0,64.0,29.67,East,100,0.0,2.0,97,0.00,,,0.38,,2013-05-31 00:32:00,
2013-05-30 19:42:00,65.0,64.0,29.67,East,100,0.0,2.0,97,0.00,,,0.38,,2013-05-31 00:42:00,
2013-05-30 19:52:00,65.0,64.0,29.68,East,94,0.0,1.0,97,0.02,,,0.40,,2013-05-31 00:52:00,
2013-05-30 20:01:00,65.0,64.0,29.68,North,352,1.0,3.0,98,0.03,,,0.41,,2013-05-31 01:01:00,
2013-05-30 20:12:00,65.0,64.0,29.68,North,352,1.0,3.0,98,0.03,,,0.41,,2013-05-31 01:12:00,
2013-05-30 20:21:00,66.0,65.0,29.69,SE,128,0.0,1.0,98,0.04,,,0.42,,2013-05-31 01:21:00,
2013-05-30 20:32:00,66.0,65.0,29.70,SW,226,0.0,3.0,98,0.05,,,0.43,,2013-05-31 01:32:00,
2013-05-30 20:42:00,66.0,65.0,29.69,WNW,299,0.0,0.0,97,0.04,,,0.44,,2013-05-31 01:42:00,
2013-05-30 20:52:00,66.0,65.0,29.69,WNW,299,0.0,0.0,97,0.04,,,0.44,,2013-05-31 01:52:00,
2013-05-30 21:02:00,65.0,64.0,29.69,East,79,0.0,2.0,97,0.03,,,0.44,,2013-05-31 02:02:00,
2013-05-30 21:11:00,65.0,64.0,29.69,East,79,0.0,2.0,97,0.03,,,0.44,,2013-05-31 02:11:00,
2013-05-30 21:22:00,65.0,64.0,29.68,East,79,0.0,0.0,97,0.02,,,0.44,,2013-05-31 02:22:00,
2013-05-30 21:32:00,64.0,63.0,29.69,North,4,0.0,1.0,97,0.01,,,0.44,,2013-05-31 02:32:00,
2013-05-30 21:41:00,64.0,63.0,29.69,North,4,0.0,1.0,97,0.01,,,0.44,,2013-05-31 02:41:00,
2013-05-30 21:51:00,64.0,63.0,29.70,North,3,0.0,0.0,98,0.00,,,0.44,,2013-05-31 02:51:00,
2013-05-30 22:01:00,64.0,63.0,29.70,North,3,0.0,0.0,98,0.00,,,0.44,,2013-05-31 03:01:00,
2013-05-30 22:11:00,64.0,63.0,29.70,North,3,0.0,0.0,98,0.00,,,0.44,,2013-05-31 03:11:00,
2013-05-30 22:21:00,64.0,63.0,29.70,North,3,0.0,0.0,98,0.00,,,0.44,,2013-05-31 03:21:00,
2013-05-30 22:33:00,64.0,63.0,29.70,North,360,0.0,2.0,98,0.18,,,0.62,,2013-05-31 03:33:00,
2013-05-30 22:43:00,64.0,63.0,29.70,North,360,0.0,2.0,98,0.18,,,0.62,,2013-05-31 03:43:00,
2013-05-30 22:53:00,64.0,63.0,29.69,East,99,0.0,1.0,98,0.19,,,0.63,,2013-05-31 03:53:00,
2013-05-30 23:02:00,63.0,62.0,29.68,ENE,68,0.0,1.0,98,0.19,,,0.63,,2013-05-31 04:02:00,
2013-05-30 23:12:00,63.0,62.0,29.68,ENE,68,0.0,1.0,98,0.19,,,0.63,,2013-05-31 04:12:00,
2013-05-30 23:22:00,63.0,62.0,29.68,ENE,68,0.0,0.0,98,0.04,,,0.63,,2013-05-31 04:22:00,
2013-05-30 23:33:00,63.0,62.0,29.67,ENE,68,0.0,1.0,98,0.01,,,0.63,,2013-05-31 04:33:00,
2013-05-30 23:42:00,63.0,62.0,29.67,ENE,68,0.0,1.0,98,0.01,,,0.63,,2013-05-31 04:42:00,
2013-05-30 23:53:00,62.0,61.0,29.67,ENE,68,0.0,0.0,98,0.00,,,0.63,,2013-05-31 04:53:00,